This is the latest recevied weather packets stored in our database for station/object KGRR-WX. If no packets are shown the sender has not sent any weather packets the latest 10 day(s).
| Time | Temp. | Humidity | Pressure | Rain* | Wind** | Luminosity | Snow |
|---|---|---|---|---|---|---|---|
| 1777740306 | 7.78° C | 43% | 990.1 hPa | 0 mm | - | - | - |
| 1777739421 | 7.78° C | 40% | 989.6 hPa | 0 mm | - | - | - |
| 1777738506 | 7.22° C | 40% | 989.6 hPa | 0 mm | - | - | - |
| 1777737625 | 6.67° C | 40% | 989.6 hPa | 0 mm | - | - | - |
| 1777736705 | 6.67° C | 47% | 989.7 hPa | 0 mm | - | - | - |
| 1777735814 | 6.11° C | 50% | 989.8 hPa | 0 mm | - | - | - |
| 1777734906 | 6.11° C | 50% | 989.8 hPa | 0 mm | - | - | - |
| 1777734025 | 5.56° C | 50% | 989.8 hPa | 0 mm | - | - | - |
| 1777733105 | 5.56° C | 56% | 990.2 hPa | 0 mm | - | - | - |
| 1777732213 | 5° C | 56% | 990.6 hPa | 0 mm | - | - | - |
| 1777731306 | 4.44° C | 56% | 990.6 hPa | 0 mm | - | - | - |
| 1777730418 | 4.44° C | 56% | 990.6 hPa | 0 mm | - | - | - |
| 1777729506 | 3.89° C | 69% | 990.3 hPa | 0 mm | - | - | - |
| 1777728621 | 3.89° C | 69% | 990.3 hPa | 0 mm | - | - | - |
| 1777727706 | 2.78° C | 69% | 990.3 hPa | 0 mm | - | - | - |
| 1777726818 | 2.78° C | 69% | 990.3 hPa | 0 mm | - | - | - |
| 1777725905 | 2.22° C | 82% | 989.7 hPa | 0 mm | - | - | - |
| 1777725021 | 1.67° C | 81% | 990.5 hPa | 0 mm | - | - | - |
| 1777724105 | 1.11° C | 81% | 990.5 hPa | 0 mm | - | - | - |
| 1777723225 | 0.56° C | 81% | 990.5 hPa | 0 mm | - | - | - |
| 1777722305 | 0° C | 84% | 990.3 hPa | 0 mm | - | - | - |
| 1777721422 | 0° C | 87% | 990.1 hPa | 0 mm | - | - | - |
| 1777720506 | -0.56° C | 87% | 990.1 hPa | 0 mm | - | - | - |
| 1777719624 | -0.56° C | 87% | 990.1 hPa | 0 mm | - | - | - |
| 1777718705 | -0.56° C | 86% | 989.9 hPa | 0 mm | - | - | - |
* Rain latest hour (hover to see other rain measurements)
** Current wind speed in m/s (hover to see current wind gust speed)